Погода в Грудзендзе

Польша     53°29′27″N   18°47′04″E
темп.,
°C
ветер,
м/с
пор.,
м/с
влажн.,
%
обл.,
%
осадки,
мм/ч
давл.,
гПа
погр.,
м
1 марта, пн
пн101:00+1сз23940 0.0 103344
04:00+1з11920 0.0 103322
07:00+1зюз23940 0.0 103456
10:00+5зюз34800 0.0 1034274
13:00+8зюз46690 0.0 1034443
16:00+8зюз48710 0.0 1033446
19:00+5зюз49860 0.0 1032212
22:00+4зюз39910 0.0 1032212
2 марта, вт
вт201:00+3з49890 0.0 1032227
04:00+2з49910 0.0 1030243
07:00+1з49910 0.0 1031277
10:00+7зсз49700 0.0 1031564
13:00+10сз47588 0.0 1032785
16:00+9ссз35670 0.0 1031619
19:00+5с23890 0.0 103244
22:00+2ссв23940 0.0 103373
3 марта, ср
ср301:00+1всв129226 0.0 103322
04:00+1вюв118473 0.0 103222
07:00+1ююв227837 0.0 103224
10:00+5ююз346413 0.0 1031344
13:00+9ююз35697 0.0 1028558
16:00+9юз36680 0.0 1025509
19:00+5юз34810 0.0 102376
22:00+3юз36840 0.0 1020119
4 марта, чт
чт401:00+2юз38924 0.0 1017146
04:00+2зюз37944 0.0 1015161
07:00+1зюз37977 0.0 1014183
10:00+5зсз367728 0.0 1013530
13:00+7сз456434 0.0 10131081
16:00+5ссз3576100 0.0 1012641
19:00+2ссв5796100 0.1 1012358
22:000св4868100 0.1 1012635
5 марта, пт
пт501:000св4772100 0.1 1012479
04:000св3674100 0.1 1013619
07:00−1ссв5974100 0.1 1014565
10:00+1ссв684440 0.0 10161100
13:00+3с574520 0.0 10171813
16:00+1ссв694996 0.2 10181529
19:00−2ссз396648 0.2 1021470
22:00−2ссз496239 0.0 1023772